Location: Ar Ranvel
(48.3000°N, 4.8833°W)
Time: 19:29:53
(UTC+00:00)

ISS - Pass Details

Date: 30 September 2021
Orbit: 417 x 423 km, 51.6° (Epoch: 20 October)

Event Time Altitude Azimuth Distance (km) Brightness Sun altitude
Rises 19:01:58 0° 290° (WNW) 2,366 1.9 -11.1°
Reaches altitude 10° 19:04:05 10° 293° (WNW) 1,501 0.4 -11.4°
Maximum altitude 19:07:26 67° 17° (NNE) 457 -3.7 -12.0°
Enters shadow 19:09:29 22° 97° (E) 986 -2.5 -12.3°
